Location: Unspecified
(49.2170°N, 0.0000°E)
Time: 12:15:55
(UTC+00:00)

S-56A Canister/Altair - Pass Details

Date: 27 January 2021
Orbit: 631 x 2501 km, 38.9° (Epoch: 05 March)

Event Time Altitude Azimuth Distance (km) Brightness Sun altitude
Exits shadow 05:35:35 16° 212° (SSW) 1,770 9.1 -19.8°
Maximum altitude 05:36:41 17° 195° (SSW) 1,757 9.3 -19.6°
Drops below altitude 10° 05:40:06 10° 155° (SSE) 2,392 10.4 -19.1°
Sets 05:43:47 0° 137° (SE) 3,607 11.8 -18.5°
